Date,TemperatureHighF,TemperatureAvgF,TemperatureLowF,DewpointHighF,DewpointAvgF,DewpointLowF,HumidityHigh,HumidityAvg,HumidityLow,PressureMaxIn,PressureMinIn,WindSpeedMaxMPH,WindSpeedAvgMPH,GustSpeedMaxMPH,PrecipitationSumIn
2013-1-1,39,32,19,25,18,4,66,56,41,30.00,29.82,12,2,12,0.00
2013-1-2,28,20,8,13,8,2,80,62,39,30.16,29.98,11,1,11,0.00
2013-1-3,28,18,8,12,5,-4,78,57,40,30.19,30.05,7,1,7,0.00
2013-1-4,41,29,14,40,18,9,96,66,45,30.05,29.52,14,2,14,1.84
2013-1-5,42,31,23,22,18,15,83,59,38,30.26,29.93,12,2,12,0.00
2013-1-6,45,32,23,29,23,18,88,73,45,30.21,29.96,9,1,9,0.00
2013-1-7,40,30,20,27,20,15,89,68,39,30.40,30.02,8,2,8,0.00
2013-1-8,48,30,17,27,21,13,89,71,39,30.41,30.31,12,1,12,0.00
2013-1-9,43,32,20,34,27,18,91,81,66,30.38,30.08,10,1,10,0.00
2013-1-10,46,39,27,32,21,15,78,49,31,30.56,30.15,12,3,12,0.00
2013-1-11,37,29,23,31,23,20,89,78,62,30.54,30.31,4,1,4,0.08
2013-1-13,46,45,44,46,45,44,99,99,99,30.08,30.01,5,2,5,0.01
2013-1-14,56,45,35,53,40,24,99,84,57,30.30,29.90,8,2,8,0.04
2013-1-15,37,34,31,29,25,22,86,70,56,30.34,30.22,5,2,5,0.01
2013-1-16,33,31,29,32,29,23,98,93,65,30.22,29.81,4,1,4,0.06
2013-1-17,43,34,27,33,27,10,99,76,50,30.10,29.87,11,2,11,0.01
2013-1-18,27,22,16,11,4,-8,68,45,23,30.46,30.03,11,3,11,0.00
2013-1-19,43,33,16,27,20,8,75,59,43,30.37,29.89,9,2,9,0.00
2013-1-20,51,39,26,28,20,5,78,50,20,29.99,29.65,20,4,20,0.00
2013-1-21,28,24,19,20,10,1,86,58,36,30.08,29.78,9,2,10,0.00
2013-1-22,24,17,9,16,0,-12,87,49,23,30.13,29.77,17,3,17,0.00
2013-1-23,19,10,3,-4,-9,-16,61,43,22,30.18,30.10,16,2,16,0.00
2013-1-24,21,8,-3,0,-7,-11,77,53,24,30.32,30.11,22,3,22,0.00
2013-1-25,21,14,7,10,-1,-7,79,51,28,30.36,30.04,12,2,12,0.00
2013-1-26,24,16,8,10,3,-3,83,58,31,30.32,30.00,14,3,14,0.00
2013-1-27,33,20,8,9,-2,-19,78,42,10,30.48,30.31,13,2,13,0.00
2013-1-28,31,24,15,30,19,3,95,81,54,30.47,29.98,5,1,5,0.00
2013-1-29,36,33,31,34,32,30,97,94,89,30.16,29.98,5,1,5,0.07
2013-1-30,55,44,34,55,44,33,99,99,96,30.11,29.40,17,3,17,0.06
2013-1-31,59,44,28,59,32,8,99,65,26,29.70,29.03,33,9,33,0.83
2013-2-1,31,25,20,14,6,-2,66,45,25,30.15,29.69,19,4,20,0.00
2013-2-2,31,22,14,17,6,-6,83,52,21,30.26,30.05,14,3,14,0.00
2013-2-3,31,23,15,17,14,11,87,69,45,30.05,29.77,7,2,7,0.04
2013-2-4,32,23,17,18,8,-2,87,54,24,29.94,29.76,17,3,17,0.00
2013-2-5,28,24,20,22,17,8,88,74,56,29.99,29.90,5,1,5,0.00
2013-2-6,39,30,24,26,17,-3,91,62,30,30.32,29.90,11,2,11,0.02
2013-2-7,34,24,15,11,1,-6,69,39,19,30.49,30.17,7,2,7,0.00
2013-2-8,29,26,22,28,21,9,97,82,49,30.36,29.59,22,7,22,0.01
2013-2-9,24,20,14,22,17,7,95,86,71,30.26,29.69,23,6,23,0.00
2013-2-10,38,22,7,26,14,3,90,72,46,30.45,30.25,9,2,9,0.00
2013-2-11,41,32,18,41,30,11,99,92,74,30.32,29.64,7,1,7,0.33
2013-2-12,47,39,34,40,27,21,99,64,40,29.92,29.65,21,3,21,0.00
2013-2-13,46,35,24,29,21,14,89,58,28,29.90,29.69,8,2,8,0.00
2013-2-14,45,34,25,30,23,16,91,67,32,29.97,29.70,10,1,10,0.06
2013-2-15,53,37,25,32,27,22,91,70,36,30.01,29.90,14,2,14,0.00
2013-2-16,40,32,27,32,22,13,94,68,36,29.95,29.69,8,2,8,0.09
2013-2-17,30,22,14,14,0,-14,55,38,14,29.85,29.56,27,6,27,0.00
2013-2-18,35,23,12,10,0,-10,62,38,14,30.18,29.85,16,4,16,0.00
2013-2-19,44,32,18,38,25,9,96,75,48,30.19,29.61,13,2,13,0.24
2013-2-20,37,29,21,33,13,4,85,51,33,29.88,29.61,21,4,21,0.01
2013-2-21,34,25,20,11,10,7,67,53,34,30.27,29.86,16,5,16,0.00
2013-2-22,38,29,17,26,18,11,82,64,41,30.39,30.24,8,2,8,0.00
2013-2-23,37,34,32,35,31,24,97,88,72,30.27,29.82,8,2,8,0.11
2013-2-24,42,36,32,36,31,23,98,83,62,29.92,29.71,17,3,17,0.02
2013-2-25,48,36,28,25,23,21,80,60,36,30.23,29.91,10,2,10,0.00
2013-2-26,43,34,25,30,24,20,91,69,42,30.31,29.99,12,3,12,0.07
2013-2-27,42,38,33,41,37,30,98,95,91,29.99,29.52,18,6,18,0.91
2013-2-28,50,39,32,40,34,31,99,84,56,29.61,29.52,9,1,9,0.00
2013-3-1,46,38,34,33,28,23,87,69,42,29.74,29.55,13,3,13,0.01
2013-3-2,39,34,29,25,23,21,76,64,49,29.74,29.65,13,3,13,0.00
2013-3-3,33,29,26,23,19,14,76,67,50,29.69,29.63,13,4,13,0.00
2013-3-4,40,32,26,21,18,15,71,58,41,29.84,29.69,21,5,21,0.00
2013-3-5,48,38,28,25,21,18,72,53,32,30.02,29.83,14,3,14,0.00
2013-3-6,40,37,34,34,28,23,87,70,57,30.00,29.91,25,9,25,0.00
2013-3-7,38,34,31,32,28,24,92,81,63,30.04,29.93,18,6,18,0.01
2013-3-8,37,33,29,33,28,22,95,84,57,30.16,29.94,9,2,9,0.24
2013-3-9,58,41,29,25,19,-4,75,47,11,30.32,30.14,19,2,19,0.01
2013-3-10,54,38,24,32,26,21,88,67,33,30.39,30.29,9,3,9,0.00
2013-3-11,53,43,35,44,37,31,96,81,59,30.31,30.09,11,4,11,0.00
2013-3-12,53,49,40,53,48,36,99,96,86,30.10,29.67,14,5,14,0.84
2013-3-13,51,41,34,36,25,12,87,56,26,29.86,29.76,16,3,16,0.01
2013-3-14,36,31,27,27,13,2,81,48,26,29.88,29.80,20,5,20,0.00
2013-3-15,43,33,23,27,14,3,74,48,21,29.91,29.69,16,4,16,0.00
2013-3-16,40,33,27,27,19,6,84,58,26,29.88,29.71,8,2,8,0.00
2013-3-17,37,30,23,25,8,-8,83,45,15,30.30,29.88,14,3,14,0.00
2013-3-18,35,28,20,27,6,-9,94,45,16,30.41,30.07,13,4,13,0.00
2013-3-19,38,32,28,35,30,26,95,91,81,30.08,29.64,14,4,14,0.27
2013-3-20,43,34,26,29,17,9,88,53,25,29.82,29.74,22,3,22,0.02
2013-3-21,38,32,27,23,14,2,81,52,23,29.81,29.60,10,2,10,0.00
2013-3-22,41,32,23,20,14,7,63,49,33,29.81,29.66,16,3,16,0.00
2013-3-23,46,37,30,21,16,3,66,45,19,29.88,29.73,20,5,20,0.00
2013-3-24,45,36,26,21,17,13,67,46,30,29.89,29.71,12,3,12,0.00
2013-3-25,44,38,32,25,21,18,62,51,36,29.73,29.45,16,5,16,0.00
2013-3-26,51,40,30,27,22,14,68,50,25,29.83,29.56,14,3,14,0.00
2013-3-27,54,39,25,26,18,6,80,48,16,29.89,29.81,16,3,16,0.00
2013-3-28,43,43,42,31,30,30,62,61,59,30.07,30.03,5,2,5,0.00
2013-3-29,57,46,37,30,24,15,63,44,20,30.11,30.02,13,3,13,0.00
2013-3-30,58,45,32,30,17,-1,77,40,10,30.14,30.04,12,2,12,0.00
2013-3-31,56,43,27,40,22,13,92,48,19,30.12,29.66,17,5,17,0.11
2013-4-1,62,46,33,45,29,9,92,53,33,29.86,29.58,21,4,21,0.07
2013-4-2,43,35,27,17,6,-10,58,33,10,30.00,29.86,20,5,25,0.00
2013-4-3,48,36,28,12,4,-10,48,29,10,30.25,30.00,19,5,19,0.00
2013-4-4,57,40,27,27,12,-3,68,36,10,30.34,30.07,13,4,13,0.00
2013-4-5,62,45,35,29,17,0,76,40,10,30.07,29.70,13,3,13,0.00
2013-4-6,49,39,31,20,2,-12,54,25,10,30.30,29.95,16,4,16,0.00
2013-4-7,56,42,28,40,26,9,86,55,27,30.30,30.00,19,5,19,0.00
2013-4-8,70,54,36,42,33,22,94,55,17,30.08,29.96,11,2,11,0.00
2013-4-9,79,63,47,51,39,26,93,49,18,30.02,29.90,23,3,23,0.00
2013-4-10,67,58,48,54,47,34,96,69,41,29.96,29.83,11,3,11,0.20
2013-4-11,55,51,44,52,40,19,97,68,30,30.08,29.82,10,4,10,0.00
2013-4-12,44,39,36,37,34,28,94,83,55,30.08,29.74,14,6,14,0.37
2013-4-13,54,45,35,38,33,28,95,67,38,29.94,29.74,10,2,10,0.07
2013-4-14,55,46,36,36,26,13,81,49,20,30.22,29.92,17,3,17,0.00
2013-4-15,59,45,32,32,26,20,81,52,22,30.38,30.20,12,3,12,0.00
2013-4-16,66,51,36,51,42,29,94,73,44,30.38,30.11,18,4,18,0.02
2013-4-17,68,57,48,52,33,12,94,49,13,30.31,30.11,14,3,14,0.02
2013-4-18,61,52,42,46,33,8,83,53,17,30.38,30.14,14,5,14,0.00
2013-4-19,72,60,51,61,56,46,99,87,64,30.15,29.67,20,6,20,0.04
2013-4-20,62,51,40,61,32,0,96,56,19,30.30,29.67,21,4,21,0.31
2013-4-21,53,43,32,25,13,-4,59,34,12,30.65,30.30,11,4,11,0.00
2013-4-22,57,45,34,34,25,7,79,50,15,30.71,30.53,23,5,23,0.00
2013-4-23,46,41,36,37,33,26,83,72,60,30.54,30.12,12,5,12,0.00
2013-4-24,76,55,42,47,41,35,88,63,23,30.12,29.84,13,5,13,0.00
2013-4-25,63,54,46,50,25,3,94,41,10,30.30,29.86,14,4,14,0.01
2013-4-26,68,56,47,37,24,7,74,37,10,30.44,30.28,12,3,12,0.00
2013-4-27,70,54,34,33,22,7,72,35,10,30.45,30.29,10,3,10,0.00
2013-4-28,71,56,39,39,29,18,77,40,19,30.34,30.23,14,4,14,0.00
2013-4-29,59,54,48,44,37,26,74,54,37,30.28,30.23,10,3,10,0.00
2013-4-30,69,57,46,41,23,3,78,36,10,30.38,30.25,11,3,11,0.00
2013-5-1,72,53,36,41,30,7,75,44,10,30.51,30.37,10,3,10,0.00
2013-5-2,80,64,41,43,31,16,88,37,10,30.49,30.33,11,4,11,0.00
2013-5-3,69,57,48,41,31,15,75,40,13,30.50,30.37,11,4,11,0.00
2013-5-4,73,55,40,44,38,27,91,59,18,30.41,30.25,13,3,13,0.00
2013-5-5,68,51,34,40,34,22,93,60,17,30.33,30.23,10,3,10,0.00
2013-5-6,74,55,39,48,42,35,92,66,30,30.30,30.17,10,3,10,0.00
2013-5-7,79,61,43,54,47,39,92,65,25,30.22,30.13,10,2,10,0.00
2013-5-8,66,60,54,61,58,52,96,90,83,30.19,30.04,7,3,7,0.01
2013-5-9,63,57,52,59,56,51,99,94,81,30.07,29.91,5,1,5,0.25
2013-5-10,80,64,47,61,51,42,99,69,29,30.01,29.94,9,2,9,0.00
2013-5-11,64,61,57,63,59,54,99,94,76,29.94,29.73,9,2,9,0.33
2013-5-12,69,59,48,59,43,5,99,64,10,29.91,29.66,16,2,16,0.05
2013-5-13,57,48,37,32,25,14,77,45,19,30.11,29.91,13,3,13,0.02
2013-5-14,59,47,33,35,24,10,84,47,16,30.11,30.03,10,2,10,0.00
2013-5-15,63,49,32,52,41,29,90,76,42,30.10,29.71,10,2,10,0.02
2013-5-16,83,64,44,57,35,17,96,51,10,29.87,29.73,16,2,16,0.00
2013-5-17,71,59,49,44,38,28,83,48,22,30.24,29.87,10,2,10,0.00
2013-5-18,71,56,41,47,42,38,88,64,34,30.33,30.24,7,1,7,0.00
2013-5-19,56,53,48,55,52,44,98,94,85,30.35,30.21,5,1,5,0.17
2013-5-20,82,66,55,68,60,55,99,84,51,30.21,29.99,6,1,6,0.06
2013-5-21,89,73,59,69,64,58,98,76,42,30.02,29.88,9,1,9,0.00
2013-5-22,77,65,56,69,62,54,97,90,75,29.99,29.88,7,2,7,0.37
2013-5-23,70,66,64,69,65,63,99,97,93,29.94,29.81,5,2,5,2.54
2013-5-24,64,56,44,64,55,44,99,98,91,29.92,29.69,9,2,9,0.37
2013-5-25,46,44,43,45,43,40,99,95,88,29.92,29.84,14,4,14,0.66
2013-5-26,62,51,43,42,38,33,91,64,35,30.19,29.87,17,4,17,0.00
2013-5-27,73,56,35,48,36,23,95,56,17,30.23,30.14,11,2,11,0.04
2013-5-28,70,56,42,56,48,40,97,78,37,30.24,30.16,5,1,5,0.00
2013-5-29,80,66,56,70,62,56,99,89,62,30.17,30.03,9,1,9,0.13
2013-5-30,90,75,60,72,64,60,98,72,37,30.17,30.09,10,1,10,0.00
2013-5-31,93,77,62,70,63,54,95,68,28,30.17,30.04,10,1,10,0.00
2013-6-1,90,75,61,69,64,59,94,71,35,30.07,29.95,8,2,8,0.00
2013-6-2,86,75,66,69,67,64,94,79,53,29.96,29.80,9,2,9,0.00
2013-6-3,78,69,60,69,64,48,99,85,59,29.93,29.83,6,1,6,0.00
2013-6-4,72,61,51,49,42,36,79,52,27,30.14,29.93,13,3,13,0.00
2013-6-5,74,60,46,51,45,37,90,61,28,30.22,30.13,6,2,6,0.00
2013-6-6,70,59,48,57,51,45,96,78,56,30.18,30.06,9,2,9,0.00
2013-6-7,60,57,54,60,57,54,99,98,96,30.07,29.72,6,2,6,1.78
2013-6-8,77,63,53,64,58,52,99,83,55,30.09,29.63,10,2,10,0.31
2013-6-9,79,66,55,65,56,50,98,74,38,30.23,30.08,7,1,7,0.00
2013-6-10,70,62,56,63,59,55,99,90,73,30.22,29.94,9,1,9,1.09
2013-6-11,77,63,59,72,61,56,99,93,72,29.94,29.62,5,2,5,0.76
2013-6-12,71,64,55,56,53,49,88,68,47,29.90,29.69,13,3,13,0.00
2013-6-13,58,54,51,56,53,49,99,96,89,29.88,29.59,9,2,9,1.42
2013-6-14,71,58,50,62,54,50,99,89,56,29.89,29.59,12,2,12,0.72
2013-6-15,78,64,51,64,51,40,99,68,27,30.02,29.89,9,2,9,0.01
2013-6-16,77,64,50,62,56,48,95,78,45,30.02,29.78,9,1,9,0.00
2013-6-17,84,70,57,67,60,54,97,73,43,29.99,29.87,17,2,17,0.00
2013-6-18,80,66,57,67,61,55,99,86,56,29.99,29.86,11,2,11,0.92
2013-6-19,74,63,52,59,50,32,99,67,22,30.20,29.94,7,2,7,0.00
2013-6-20,79,64,47,57,51,45,94,67,34,30.30,30.20,7,1,7,0.00
2013-6-21,82,68,52,64,57,50,93,70,46,30.32,30.26,7,1,7,0.00
2013-6-22,84,70,55,63,57,53,94,68,37,30.30,30.18,8,1,8,0.00
2013-6-23,89,74,59,69,63,56,92,72,35,30.24,30.10,9,2,9,0.00
2013-6-24,91,76,67,73,68,61,98,80,46,30.13,29.98,8,2,8,0.81
2013-6-25,88,74,64,76,69,63,99,87,53,30.06,29.83,8,1,8,0.00
2013-6-26,81,74,68,73,70,68,99,87,69,29.90,29.81,8,1,8,0.00
2013-6-27,80,71,65,72,69,64,99,92,70,29.88,29.66,7,1,7,0.67
2013-6-28,81,73,69,76,72,68,99,95,75,29.67,29.53,8,2,8,0.18
2013-6-29,83,73,67,72,68,64,99,86,55,29.77,29.55,9,2,9,0.00
2013-6-30,81,74,70,74,71,69,99,92,75,29.99,29.77,8,2,8,0.00
2013-7-1,74,72,71,74,72,71,99,99,98,30.11,29.97,5,1,5,1.07
2013-7-2,80,74,71,78,73,71,99,96,81,30.23,30.11,7,1,7,0.08
2013-7-3,83,76,70,76,72,70,99,89,70,30.29,30.21,11,2,11,0.00
2013-7-4,89,79,72,76,73,70,99,82,57,30.30,30.19,9,2,9,0.02
2013-7-5,91,80,71,74,72,69,95,78,50,30.26,30.13,7,2,7,0.00
2013-7-6,90,81,72,75,72,68,94,75,49,30.18,30.07,9,2,9,0.00
2013-7-7,92,80,70,77,73,69,96,80,54,30.11,29.96,6,1,6,0.00
2013-7-8,88,79,70,74,68,64,92,72,47,30.09,29.99,9,2,9,0.00
2013-7-9,88,75,66,72,69,64,95,81,51,30.13,30.06,5,1,5,0.00
2013-7-10,83,75,71,78,73,69,99,93,74,30.09,29.85,7,1,7,0.47
2013-7-11,82,74,68,76,70,63,99,89,65,29.99,29.85,5,1,5,0.02
2013-7-12,78,72,66,67,63,55,92,73,58,30.20,29.98,6,2,6,0.00
2013-7-13,76,61,0,73,67,60,98,80,80,30.35,0.00,4,1,4,0.17
2013-7-14,89,79,72,77,73,70,99,83,59,30.38,30.27,7,1,7,0.00
2013-7-15,90,80,71,77,71,65,98,77,48,30.29,30.19,11,1,11,0.00
2013-7-16,91,80,68,73,68,63,94,71,41,30.25,30.18,9,2,9,0.00
2013-7-17,93,80,68,75,70,63,95,74,40,30.26,30.11,5,1,5,0.00
2013-7-18,94,82,71,77,72,69,95,75,47,30.12,30.01,6,1,6,0.00
2013-7-19,95,83,73,78,74,71,97,76,49,30.02,29.82,10,2,10,0.00
2013-7-20,91,81,72,78,73,67,90,77,50,29.91,29.76,9,2,9,0.18
2013-7-21,87,75,67,69,65,58,92,74,39,30.03,29.90,5,1,5,0.00
2013-7-22,82,73,64,73,69,62,97,87,72,30.03,29.89,5,1,5,0.02
2013-7-23,86,75,71,78,73,71,99,93,62,29.89,29.61,11,1,11,0.99
2013-7-24,80,72,62,75,66,53,99,83,65,29.99,29.66,6,2,6,0.00
2013-7-25,64,61,58,59,54,49,96,79,70,30.11,29.98,5,2,5,0.01
2013-7-26,74,65,60,71,63,59,99,93,72,30.09,30.02,5,1,5,0.20
2013-7-27,80,69,59,71,63,58,99,83,55,30.10,30.03,7,1,7,0.00
2013-7-28,78,69,62,69,65,61,98,88,69,30.06,29.99,5,1,5,0.01
2013-7-29,84,73,63,72,64,53,99,77,48,30.14,30.01,11,1,11,0.00
2013-7-30,79,67,56,62,57,54,95,73,43,30.20,30.13,8,2,8,0.00
2013-7-31,80,68,56,63,59,52,96,75,40,30.20,30.09,5,1,5,0.00
2013-8-1,74,65,59,68,63,57,99,94,74,30.11,29.88,6,1,6,0.47
2013-8-2,84,71,63,71,64,56,99,81,47,29.95,29.83,9,2,9,0.31
2013-8-3,78,67,62,69,64,60,98,91,63,29.95,29.87,5,1,5,0.07
2013-8-4,79,65,55,67,57,51,99,76,43,29.98,29.88,10,2,10,0.01
2013-8-5,75,64,55,54,49,36,91,61,26,30.08,29.96,11,2,11,0.00
2013-8-6,79,64,50,60,54,48,95,72,38,30.18,30.07,5,1,5,0.00
2013-8-7,74,66,55,65,60,50,95,82,58,30.19,30.12,7,2,7,0.00
2013-8-8,78,72,68,73,69,65,98,92,80,30.12,30.06,6,2,6,0.01
2013-8-9,77,73,71,76,72,69,99,98,95,30.07,29.84,9,2,9,2.22
2013-8-10,82,72,60,72,64,56,99,80,49,30.10,29.89,9,1,9,0.01
2013-8-11,79,65,51,62,56,48,96,74,40,30.17,30.07,9,1,9,0.00
2013-8-12,81,69,59,65,60,52,97,77,40,30.10,29.97,5,1,5,0.00
2013-8-13,72,67,62,70,65,60,99,93,81,29.99,29.74,5,1,5,0.17
2013-8-14,73,64,54,63,54,48,98,74,48,30.04,29.78,16,2,16,0.00
2013-8-15,75,62,49,58,52,42,95,72,33,30.17,30.05,11,1,11,0.00
2013-8-16,78,63,51,61,54,49,96,76,42,30.25,30.14,7,1,7,0.00
2013-8-17,80,66,53,64,57,51,96,77,41,30.32,30.23,5,1,5,0.01
2013-8-18,76,66,58,65,60,56,96,84,62,30.31,30.16,3,1,3,0.00
2013-8-19,77,67,59,76,62,57,99,84,60,30.16,29.65,7,1,7,0.00
2013-8-20,83,70,58,67,61,57,97,77,44,30.19,30.08,7,1,7,0.00
2013-8-21,86,71,58,69,62,57,95,76,40,30.23,30.10,8,1,8,0.00
2013-8-22,77,70,61,74,67,60,95,92,82,30.12,29.91,9,1,9,0.14
2013-8-23,79,70,61,68,61,52,96,76,43,30.16,29.91,9,2,9,0.00
2013-8-24,78,65,54,57,51,45,90,64,32,30.38,30.16,5,1,5,0.00
2013-8-25,82,64,50,62,53,44,94,71,30,30.40,30.26,7,1,7,0.00
2013-8-26,73,66,59,68,63,56,95,90,79,30.26,29.95,5,0,5,0.14
2013-8-27,82,72,68,74,68,65,99,89,66,29.97,29.85,9,1,9,0.45
2013-8-28,88,72,62,72,66,60,97,83,49,29.98,29.91,5,1,5,0.00
2013-8-29,77,69,65,67,65,62,96,86,67,30.10,29.97,5,1,5,0.02
2013-8-30,82,70,64,70,65,61,94,84,58,30.09,29.91,6,1,6,0.00
2013-8-31,80,74,68,74,70,66,96,90,81,29.91,29.84,5,1,5,0.00
2013-9-1,79,75,71,75,72,70,95,91,83,29.91,29.86,5,1,5,0.00
2013-9-2,79,73,68,74,71,67,96,93,84,29.88,29.73,4,1,4,0.01
2013-9-3,76,69,60,70,65,58,99,88,69,29.92,29.76,6,1,6,0.01
2013-9-4,80,65,54,62,56,48,98,76,37,30.00,29.91,9,2,9,0.00
2013-9-5,72,62,52,63,51,39,96,72,35,30.16,29.93,10,1,10,0.00
2013-9-6,70,56,44,49,43,35,93,67,30,30.24,30.13,10,2,10,0.00
2013-9-7,78,59,42,58,49,41,95,72,30,30.14,29.92,8,1,8,0.00
2013-9-8,76,65,52,62,54,39,93,71,28,30.12,29.83,11,2,11,0.00
2013-9-9,70,57,43,52,46,39,95,72,39,30.24,30.11,8,2,8,0.00
2013-9-10,78,66,56,75,64,52,99,93,86,30.20,30.07,5,1,5,0.08
2013-9-11,93,78,66,78,72,66,99,84,52,30.16,30.02,9,1,9,0.00
2013-9-12,84,73,67,75,69,65,96,89,67,30.03,29.73,10,1,10,0.45
2013-9-13,73,66,56,69,62,50,99,86,62,29.86,29.67,9,2,9,0.06
2013-9-14,65,56,48,50,48,46,92,78,53,30.14,29.85,9,2,9,0.00
2013-9-15,70,54,40,51,45,38,97,76,32,30.22,30.11,8,1,8,0.00
2013-9-16,67,56,50,59,52,45,98,85,59,30.28,30.06,9,1,9,0.04
2013-9-17,63,50,38,45,38,28,94,66,27,30.44,30.28,7,2,7,0.00
2013-9-18,74,53,36,50,42,35,95,72,27,30.37,30.19,7,1,7,0.00
2013-9-19,79,62,41,56,48,39,95,65,27,30.21,30.09,5,1,5,0.00
2013-9-20,80,59,44,58,50,41,96,75,29,30.13,30.03,7,1,7,0.00
2013-9-21,68,62,54,67,60,51,96,92,82,30.06,29.71,10,2,10,0.34
2013-9-22,68,60,50,66,54,42,99,81,50,29.92,29.66,13,2,13,0.66
2013-9-23,61,51,42,45,41,38,93,72,43,30.06,29.91,10,2,10,0.00
2013-9-24,70,52,39,46,40,33,95,70,27,30.06,29.88,11,2,11,0.00
2013-9-25,72,54,40,51,45,38,95,76,40,29.98,29.90,10,1,10,0.00
2013-9-26,68,58,51,54,51,47,92,78,50,30.14,29.98,5,1,5,0.00
2013-9-27,62,55,47,54,50,45,95,84,65,30.30,30.13,5,1,5,0.00
2013-9-28,72,57,44,57,49,42,96,78,41,30.34,30.27,5,1,5,0.00
2013-9-29,71,56,45,58,48,43,95,79,41,30.28,30.11,5,1,5,0.00
2013-9-30,73,56,43,54,48,41,95,76,42,30.13,29.99,5,1,5,0.00
2013-10-1,78,60,44,58,51,42,95,77,40,30.02,29.93,9,1,9,0.00
2013-10-2,80,63,49,62,55,48,97,79,46,30.05,29.94,9,1,9,0.00
2013-10-3,76,60,47,57,50,42,96,74,30,30.15,30.05,6,1,6,0.00
2013-10-4,79,62,54,65,57,52,94,83,60,30.11,30.01,6,1,6,0.00
2013-10-5,74,65,59,64,61,57,96,88,70,30.14,30.07,5,1,5,0.05
2013-10-6,64,60,58,62,60,57,99,98,92,30.18,30.10,5,2,5,0.49
2013-10-7,73,64,55,71,63,54,99,97,89,30.10,29.81,14,3,14,0.30
2013-10-8,64,57,46,54,44,37,98,68,39,30.37,29.98,10,2,10,0.00
2013-10-9,62,52,43,46,43,40,95,74,47,30.42,30.32,8,2,8,0.00
2013-10-10,60,53,48,52,48,44,90,81,72,30.33,30.13,6,2,6,0.00
2013-10-11,68,60,53,57,52,42,89,74,55,30.14,30.06,6,2,6,0.00
2013-10-12,70,59,52,54,49,42,86,71,53,30.35,30.13,10,3,10,0.00
2013-10-13,63,55,46,52,47,44,92,77,57,30.42,30.33,8,2,8,0.00
2013-10-14,68,52,40,49,45,39,95,78,36,30.40,30.25,6,1,6,0.00
2013-10-15,73,57,47,55,47,37,95,73,39,30.28,30.15,5,1,5,0.00
2013-10-16,62,55,46,53,49,41,91,79,65,30.16,29.93,4,1,4,0.00
2013-10-17,76,63,55,61,57,53,97,83,46,29.94,29.69,7,2,7,0.06
2013-10-18,68,60,48,62,47,36,99,66,34,29.97,29.65,12,3,12,0.04
2013-10-19,65,51,37,50,41,33,94,72,32,29.98,29.75,9,2,9,0.08
2013-10-20,62,52,40,51,39,29,95,66,30,30.06,29.73,17,2,17,0.02
2013-10-21,67,49,34,45,36,28,95,67,24,30.14,29.99,9,2,9,0.00
2013-10-22,65,50,39,53,44,37,94,79,47,29.99,29.73,8,1,8,0.00
2013-10-23,52,43,32,42,33,25,95,72,38,29.81,29.60,7,1,7,0.00
2013-10-24,55,44,32,36,27,17,92,55,23,29.96,29.72,18,3,18,0.00
2013-10-25,50,40,30,33,27,23,86,62,35,30.20,29.95,16,2,16,0.00
2013-10-26,55,40,25,36,26,19,92,63,25,30.20,29.89,16,3,16,0.00
2013-10-27,58,47,35,38,29,19,80,52,22,30.11,29.83,16,2,16,0.00
2013-10-28,61,43,28,36,28,24,91,61,25,30.34,30.10,14,2,14,0.00
2013-10-29,53,42,33,29,23,19,78,49,26,30.44,30.34,7,2,7,0.00
2013-10-30,53,42,32,42,34,27,92,76,55,30.36,30.19,5,1,5,0.00
2013-10-31,61,49,36,58,47,34,99,93,85,30.25,29.82,6,2,6,0.00
2013-11-1,68,60,52,61,56,49,99,86,59,29.82,29.53,25,3,25,0.00
2013-11-2,68,52,41,51,43,35,96,75,32,29.79,29.62,11,1,11,0.00
2013-11-3,49,40,30,43,30,14,94,68,43,30.45,29.79,10,3,10,0.00
2013-11-4,45,34,26,22,14,1,78,49,16,30.67,30.44,9,2,9,0.00
2013-11-5,53,41,30,36,30,21,81,64,46,30.68,30.50,8,2,8,0.00
2013-11-6,60,49,36,49,41,33,93,76,51,30.50,30.07,10,2,10,0.00
2013-11-7,61,51,39,56,48,31,95,88,74,30.07,29.73,12,2,12,0.57
2013-11-8,49,42,35,34,29,24,89,61,39,29.99,29.88,17,3,17,0.00
2013-11-9,48,37,26,32,27,21,92,69,36,30.26,29.99,7,1,7,0.00
2013-11-10,60,45,38,41,34,28,84,66,31,30.00,29.79,16,2,16,0.02
2013-11-11,51,44,34,31,26,20,76,50,30,30.17,29.93,14,3,14,0.00
2013-11-12,49,34,27,36,21,14,88,60,45,30.23,29.91,14,4,14,0.01
2013-11-13,37,29,23,15,12,3,66,50,24,30.34,30.22,14,3,14,0.00
2013-11-14,53,39,26,19,12,-3,70,38,10,30.22,30.11,12,2,12,0.00
2013-11-15,59,44,26,24,12,1,76,38,10,30.24,30.14,6,2,6,0.00
2013-11-16,62,45,30,38,31,20,90,63,21,30.32,30.22,9,1,9,0.00
2013-11-17,58,51,38,58,49,35,99,94,86,30.29,29.82,8,2,8,0.02
2013-11-18,66,57,47,60,41,22,99,60,25,29.82,29.58,18,4,18,0.15
2013-11-19,47,40,30,28,22,17,61,48,38,30.33,29.74,17,5,17,0.00
2013-11-20,44,32,23,17,11,-10,73,47,10,30.62,30.34,8,2,8,0.00
2013-11-21,49,35,21,33,23,14,83,64,32,30.63,30.39,8,1,8,0.00
2013-11-22,50,44,39,49,42,33,97,91,75,30.39,29.86,5,0,5,0.14
2013-11-23,51,40,28,48,24,6,93,56,27,30.02,29.86,17,4,17,0.00
2013-11-24,28,23,19,11,0,-12,59,38,17,30.29,29.92,20,6,27,0.00
2013-11-25,34,24,13,13,8,5,76,51,29,30.42,30.29,10,2,10,0.00
2013-11-26,38,33,29,37,20,10,99,61,42,30.32,29.90,10,2,10,0.27
2013-11-27,60,45,33,60,43,28,99,94,74,29.89,29.30,22,4,22,2.37
2013-11-28,34,28,22,28,15,8,81,58,34,30.45,29.64,16,1,16,0.00
2013-11-29,35,27,21,22,17,13,85,67,45,30.72,30.44,9,1,9,0.00
2013-11-30,33,25,15,21,11,2,83,58,28,30.76,30.38,6,2,6,0.00
2013-12-1,49,37,30,37,30,21,90,77,62,30.38,30.01,6,1,6,0.00
2013-12-2,43,34,28,36,32,26,96,90,75,30.01,29.90,5,1,5,0.00
2013-12-3,51,35,25,38,30,24,95,83,49,30.00,29.87,10,1,10,0.00
2013-12-4,52,36,25,36,30,24,95,80,50,30.17,29.99,8,1,8,0.00
2013-12-5,53,47,39,53,45,34,99,93,75,30.17,29.94,6,2,6,0.02
2013-12-6,53,43,33,53,42,32,99,93,70,30.14,29.88,16,2,16,0.41
2013-12-7,38,32,26,32,27,17,97,81,63,30.50,30.08,16,1,16,0.04
2013-12-8,30,26,18,23,18,15,91,75,60,30.58,30.42,0,0,0,0.01
2013-12-9,33,30,25,33,29,22,98,95,83,30.42,29.93,3,0,3,0.05
2013-12-10,32,29,19,32,28,18,98,96,93,30.05,29.81,6,0,6,0.02
2013-12-11,30,23,17,22,18,14,94,83,66,30.25,30.05,10,1,10,0.00
2013-12-12,25,18,8,16,10,4,85,70,47,30.30,30.09,12,1,12,0.00
2013-12-13,32,23,8,18,12,4,86,63,45,30.34,30.02,16,3,16,0.00
2013-12-14,21,16,13,17,11,8,94,82,60,30.52,29.93,12,4,12,0.00
2013-12-15,33,28,18,31,26,17,97,91,79,29.93,29.48,18,3,18,0.05
2013-12-16,30,23,8,21,10,2,84,58,36,30.20,29.76,17,3,17,0.00
2013-12-17,18,13,3,15,9,-1,91,86,79,30.22,29.93,7,2,7,0.05
2013-12-18,34,26,17,22,20,15,91,76,57,30.11,29.90,13,2,13,0.00
2013-12-19,45,33,20,27,22,16,85,65,40,30.14,29.98,13,2,13,0.01
2013-12-20,52,39,29,33,29,26,90,71,43,30.11,29.95,6,1,6,0.00
2013-12-21,59,45,33,45,38,31,93,78,59,29.99,29.88,5,1,5,0.00
2013-12-22,62,55,42,60,53,40,99,92,81,29.96,29.78,14,2,14,0.01
2013-12-23,56,50,35,56,48,29,99,94,78,30.12,29.89,10,2,10,0.83
2013-12-24,36,31,23,29,20,13,81,64,41,30.26,30.07,11,3,11,0.00
2013-12-25,27,20,15,15,5,-1,72,53,33,30.49,30.26,13,2,13,0.00
2013-12-26,32,25,18,26,20,10,91,79,64,30.42,30.11,9,1,9,0.00
2013-12-27,38,25,14,24,18,12,92,76,42,30.31,30.21,11,1,11,0.02
2013-12-28,48,33,19,28,22,16,91,70,37,30.25,30.04,13,2,13,0.00
2013-12-29,40,34,29,40,32,25,99,92,77,30.04,29.43,9,2,9,0.72
2013-12-30,38,29,15,38,23,7,99,79,56,30.18,29.63,10,2,10,0.00
2013-12-31,27,20,12,20,11,7,87,70,55,30.21,30.02,14,1,14,0.00
2014-1-1,30,23,14,19,11,6,81,60,41,30.37,30.20,16,2,16,0.00
2014-1-2,24,17,8,19,13,5,89,85,79,30.28,29.72,16,6,16,0.01